Location: Allos
(44.2333°N, 6.6333°E)
Time: 23:36:41
(UTC+00:00)

SAR-Lupe-4 - Pass Details

Date: 24 April 2021
Orbit: 483 x 483 km, 98.2° (Epoch: 13 April)

Event Time Altitude Azimuth Distance (km) Brightness Sun altitude
Rises 19:57:45 0° 356° (N) 2,560 7.9 -14.9°
Reaches altitude 10° 20:00:26 10° 334° (NNW) 1,673 7.3 -15.3°
Maximum altitude 20:02:38 16° 296° (WNW) 1,350 6.9 -15.6°
Drops below altitude 10° 20:04:50 10° 257° (WSW) 1,665 6.8 -15.9°
Sets 20:07:30 0° 235° (SW) 2,540 7.4 -16.3°
